Weather History for KPVC - October, 2012

Change the Weather History Date:

Wednesday, October 3, 2012

  Actual Average Record
Temperature  
Mean Temperature 64 °F -  
Max Temperature 69 °F 61 °F 80 °F (1951)
Min Temperature 60 °F 49 °F 41 °F (1957)
Growing Degree Days 14 (Base 50)    
Moisture  
Dew Point 61 °F    
Average Humidity 93    
Maximum Humidity 100    
Minimum Humidity 82    
Precipitation  
Precipitation 0.00 in - - ()
Sea Level Pressure  
Sea Level Pressure 30.08 in    
Wind  
Wind Speed 5 mph (East)    
Max Wind Speed 10 mph    
Max Gust Speed -    
Visibility 5 miles    
Events      
Averages and records for this station are not official NWS values.
T = Trace of Precipitation, MM = Missing Value Source: NWS Daily Summary

Daily Weather History Graph

Daily Weather History Graph

Search for Another Location

Airport or City:

Trip Planner

Search our weather history database for the weather conditions in past years. The results will help you decide how hot, cold, wet, or windy it might be!

Date:

Astronomy

Oct. 03, 2012 Rise Set
Actual Time 6:40 AM EDT 6:18 PM EDT
Civil Twilight 6:12 AM EDT 6:46 PM EDT
Nautical Twilight 5:40 AM EDT 7:18 PM EDT
Astronomical Twilight 5:07 AM EDT 7:51 PM EDT
Moon 8:04 PM EDT (10/3) 10:04 AM EDT (10/3)
Length of Visible Light 12h 33m
Length of Day
11h 37m
Waning Gibbous, 89% of the Moon is Illuminated
Oct 3
Waning Gibbous
Oct 8
Last Quarter
Oct 15
New
Oct 21
First Quarter
Oct 29
Full

Hourly Weather History & Observations

Time (EDT) Temp. Dew Point Humidity Pressure Visibility Wind Dir Wind Speed Gust Speed Precip Events Conditions
12:15 AM 60.8 °F 57.2 °F 88% 30.06 in 10.0 mi East 3.5 mph - N/A   Overcast
12:35 AM 60.8 °F 57.2 °F 88% 30.07 in 10.0 mi Calm Calm - N/A   Overcast
12:55 AM 60.8 °F 57.2 °F 88% 30.07 in 10.0 mi Calm Calm - N/A   Overcast
1:15 AM 60.8 °F 57.2 °F 88% 30.06 in 10.0 mi ENE 4.6 mph - N/A   Overcast
1:55 AM 60.8 °F 57.2 °F 88% 30.05 in 10.0 mi East 5.8 mph - N/A   Overcast
2:15 AM 60.8 °F 57.2 °F 88% 30.05 in 10.0 mi East 4.6 mph - N/A   Overcast
2:35 AM 60.8 °F 57.2 °F 88% 30.05 in 10.0 mi East 4.6 mph - N/A   Overcast
2:55 AM 60.8 °F 57.2 °F 88% 30.05 in 10.0 mi East 4.6 mph - N/A   Overcast
3:15 AM 60.8 °F 57.2 °F 88% 30.04 in 10.0 mi East 6.9 mph - N/A   Overcast
3:35 AM 62.6 °F 57.2 °F 82% 30.04 in 10.0 mi East 5.8 mph - N/A   Overcast
3:55 AM 62.6 °F 59.0 °F 88% 30.04 in 10.0 mi East 8.1 mph - N/A   Overcast
4:35 AM 62.6 °F 59.0 °F 88% 30.05 in 10.0 mi East 4.6 mph - N/A   Overcast
5:15 AM 62.6 °F 60.8 °F 94% 30.05 in 10.0 mi East 8.1 mph - N/A   Overcast
5:35 AM 62.6 °F 60.8 °F 94% 30.06 in 10.0 mi ESE 5.8 mph - N/A   Overcast
5:55 AM 62.6 °F 60.8 °F 94% 30.06 in 10.0 mi East 5.8 mph - N/A   Overcast
6:35 AM 62.6 °F 60.8 °F 94% 30.06 in 8.0 mi ESE 4.6 mph - N/A   Overcast
6:55 AM 62.6 °F 60.8 °F 94% 30.07 in 9.0 mi East 5.8 mph - N/A   Overcast
7:15 AM 62.6 °F 62.6 °F 100% 30.08 in 4.0 mi East 4.6 mph - N/A   Overcast
7:55 AM 62.6 °F 60.8 °F 94% 30.08 in 0.2 mi East 8.1 mph - N/A   Overcast
8:35 AM 62.6 °F 62.6 °F 100% 30.09 in 2.0 mi East 6.9 mph - N/A   Overcast
8:55 AM 62.6 °F 62.6 °F 100% 30.09 in 1.8 mi East 10.4 mph - N/A   Overcast
9:15 AM 64.4 °F 62.6 °F 94% 30.09 in 2.5 mi East 10.4 mph - N/A   Overcast
9:35 AM 64.4 °F 62.6 °F 94% 30.09 in 4.0 mi East 6.9 mph - N/A   Overcast
9:55 AM 64.4 °F 62.6 °F 94% 30.10 in 2.5 mi ESE 6.9 mph - N/A   Overcast
10:15 AM 64.4 °F 64.4 °F 100% 30.10 in 1.8 mi ESE 6.9 mph - N/A   Overcast
10:55 AM 66.2 °F 64.4 °F 94% 30.10 in 7.0 mi East 8.1 mph - N/A   Overcast
11:55 AM 69.8 °F 66.2 °F 88% 30.09 in 10.0 mi ESE 9.2 mph - N/A   Overcast
12:15 PM 69.8 °F 64.4 °F 83% 30.09 in 10.0 mi ESE 8.1 mph - N/A   Overcast
12:35 PM 68.0 °F 64.4 °F 88% 30.09 in 10.0 mi East 5.8 mph - N/A   Overcast
1:55 PM 68.0 °F 64.4 °F 88% 30.08 in 10.0 mi SE 6.9 mph - N/A   Overcast
2:15 PM 68.0 °F 64.4 °F 88% 30.08 in 5.0 mi SE 3.5 mph - N/A   Overcast
2:35 PM 66.2 °F 64.4 °F 94% 30.09 in 2.5 mi SSE 3.5 mph - N/A   Overcast
2:55 PM 66.2 °F 66.2 °F 100% 30.08 in 1.5 mi East 4.6 mph - N/A   Overcast
3:15 PM 64.4 °F 64.4 °F 100% 30.08 in 2.0 mi East 4.6 mph - N/A   Overcast
4:15 PM 64.4 °F 62.6 °F 94% 30.08 in 1.5 mi East 6.9 mph - N/A   Overcast
4:35 PM 64.4 °F 64.4 °F 100% 30.08 in 1.2 mi East 3.5 mph - N/A   Overcast
4:55 PM 66.2 °F 64.4 °F 94% 30.09 in 1.2 mi East 3.5 mph - N/A   Overcast
5:15 PM 62.6 °F 60.8 °F 94% 30.10 in 1.0 mi NE 3.5 mph - N/A   Overcast
5:35 PM 62.6 °F 62.6 °F 100% 30.10 in 0.8 mi East 5.8 mph - N/A   Overcast
6:15 PM 62.6 °F 62.6 °F 100% 30.10 in 1.0 mi ENE 5.8 mph - N/A   Overcast
6:55 PM 62.6 °F 62.6 °F 100% 30.11 in 1.5 mi East 4.6 mph - N/A   Overcast
7:15 PM 62.6 °F 62.6 °F 100% 30.11 in 1.5 mi Calm Calm - N/A   Overcast
7:35 PM 62.6 °F 62.6 °F 100% 30.11 in 1.2 mi NNE 4.6 mph - N/A   Overcast
8:35 PM 60.8 °F 59.0 °F 94% 30.12 in 0.5 mi NE 4.6 mph - N/A   Overcast
9:35 PM 60.8 °F 59.0 °F 94% 30.13 in 0.5 mi ENE 6.9 mph - N/A   Overcast
9:55 PM 60.8 °F 59.0 °F 94% 30.13 in 0.8 mi ENE 6.9 mph - N/A   Overcast
10:15 PM 62.6 °F 60.8 °F 94% 30.13 in 0.8 mi ENE 6.9 mph - N/A   Overcast
10:55 PM 60.8 °F 59.0 °F 94% 30.13 in 1.0 mi East 5.8 mph - N/A   Overcast
11:35 PM 60.8 °F 60.8 °F 100% 30.14 in 0.5 mi East 4.6 mph - N/A   Overcast
11:55 PM 62.6 °F 60.8 °F 94% 30.14 in 0.8 mi East 3.5 mph - N/A   Overcast